Regional Weather Roundup
Issued by NWS Little Rock, AR

Home | Current Version | Previous Version | Text Only | Print | Product List | Glossary On
Versions: 1 2 3 4 5 6 7 8 9 10 11 12 13 14 15 16 17 18 19 20 21 22 23 24 25 26 27 28 29 30 31 32 33 34 35 36 37 38 39 40 41 42 43 44 45 46 47 48 49 50
000
ASUS44 KLZK 010805
RWRLZK

WEATHER ROUNDUP FOR ARKANSAS
NATIONAL WEATHER SERVICE LITTLE ROCK AR
300 AM CDT MON SEP 01 2014

NOTE: "FAIR" INDICATES FEW OR NO CLOUDS BELOW 12,000 FEET WITH NO
SIGNIFICANT WEATHER AND/OR OBSTRUCTIONS TO VISIBILITY.

ARZ001-003-010-029-010900-
NORTHWEST ARKANSAS

CITY           SKY/WX    TMP DP  RH WIND       PRES   REMARKS
FAYETTEVILLE   CLEAR     74  71  91 S12G22    29.88F
FORT SMITH     CLEAR     77  72  84 SE3       29.87S
HARRISON       PTCLDY    75  70  84 S9        29.90F
BENTONVILLE    CLEAR     75  70  83 S12G21    29.87F
ROGERS         CLEAR     76  70  82 S13G23    29.88F
HIGHFILL       CLEAR     76  70  82 S15       29.86F
$$

ARZ004-005-016-010900-
NORTH CENTRAL ARKANSAS

CITY           SKY/WX    TMP DP  RH WIND       PRES   REMARKS
BATESVILLE     PTCLDY    75  72  88 S7        29.95F
FLIPPIN        CLEAR     75  68  78 S5        29.90S
MTN HOME       PTCLDY    73  71  93 S6        29.90F
$$

ARZ040-041-010900-
WEST CENTRAL ARKANSAS

CITY           SKY/WX    TMP DP  RH WIND       PRES   REMARKS
MENA           CLEAR     77  72  83 SW6       29.96S
MOUNT IDA      CLEAR     76  69  79 VRB3      29.95S
$$

ARZ009-017-025-026-028-010900-
NORTHEAST ARKANSAS

CITY           SKY/WX    TMP DP  RH WIND       PRES   REMARKS
CORNING          N/A     75  73  94 S12G17    29.96S
JONESBORO      MOCLDY    76  72  87 SW10      29.96S
NEWPORT        CLEAR     75  73  93 S9        29.97S
WALNUT RIDGE   CLEAR     73  66  78 S10       29.95S
BLYTHEVILLE    CLEAR     76  75  97 S7        29.98S
$$

ARZ022-023-033-042-044-010900-
CENTRAL ARKANSAS

CITY           SKY/WX    TMP DP  RH WIND       PRES   REMARKS
LITTLE ROCK    PTCLDY    76  71  85 S10       29.97R
N LITTLE ROCK    N/A     76  73  91 SW10G18   29.97R
JACKSONVILLE   CLEAR     75  73  92 S6        29.96F
SEARCY         PTCLDY    74  73  96 MISG      29.97S
HOT SPRINGS    MOCLDY    77  71  82 SW7       29.98S
RUSSELLVILLE   CLEAR     76  70  82 VRB3      29.92F
CLINTON        FAIR      73  73 100 CALM      29.95S
$$

ARZ036-010900-
EAST ARKANSAS

CITY           SKY/WX    TMP DP  RH WIND       PRES   REMARKS
WEST MEMPHIS   CLEAR     75  75 100 S6        29.98R
$$

ARZ050-053-066-070-073-010900-
SOUTHWEST ARKANSAS

CITY           SKY/WX    TMP DP  RH WIND       PRES   REMARKS
ARKADELPHIA    FAIR      73  73 100 CALM      29.98S
CAMDEN         CLEAR     73  72  94 CALM      29.98S
TEXARKANA      PTCLDY    75  72  90 S8        29.97R
EL DORADO      CLEAR     73  72  96 S3        29.99S
DE QUEEN       CLEAR     74  71  91 S5        29.93F
$$

ARZ056-057-069-010900-
SOUTHEAST ARKANSAS

CITY           SKY/WX    TMP DP  RH WIND       PRES   REMARKS
PINE BLUFF     CLEAR     73  70  90 S7        29.98S
STUTTGART      PTCLDY    75  72  88 S9        29.99R
MONTICELLO     MOCLDY    76  71  85 SW7       30.00R

$$




USA.gov is the U.S. government's official web portal to all federal, state and local government web resources and services.